Hourly Data Report for August 17, 2015

All times are specified in Local Standard Time (LST). Add 1 hour to adjust for Daylight Saving Time where and when it is observed.

TORONTO INTL A
ONTARIO

43°40'36.000" N
79°37'50.000" W
173.40 m
6158731
71624
YYZ

Download Data

Hourly Data (August 2015)
Hourly Data Report for August 17, 2015
Temp Definition
°C
Dew Point Temp Definition
°C
Rel Hum Definition
%
Wind Dir Definition
10's deg

Wind Spd Definition
km/h
Visibility Definition
km
Stn Press Definition
kPa
Hmdx Definition


Wind Chill Definition


Weather Definition


TIME
00:00 Legend Double Dagger 22.6 19.4 82 23 13 24.1 99.69 30   LegendNANA
01:00 Legend Double Dagger 22.2 18.8 81 25 5 24.1 99.68 29   Clear
02:00 Legend Double Dagger 22.1 18.9 82 25 6 24.1 99.66 29   LegendNANA
03:00 Legend Double Dagger 21.6 18.8 84 24 9 24.1 99.67 28   LegendNANA
04:00 Legend Double Dagger 21.3 18.9 86 25 7 24.1 99.66 28   Clear
05:00 Legend Double Dagger 20.8 18.8 88 23 4 24.1 99.69 27   LegendNANA
06:00 Legend Double Dagger 21.4 19.2 87 24 9 24.1 99.70 28   LegendNANA
07:00 Legend Double Dagger 23.2 20.2 83 25 10 24.1 99.73 31   Mainly Clear
08:00 Legend Double Dagger 24.9 20.5 76 25 16 24.1 99.73 33   LegendNANA
09:00 Legend Double Dagger 27.2 21.1 69 26 9 24.1 99.68 36   LegendNANA
10:00 Legend Double Dagger 28.0 21.0 65 25 18 24.1 99.67 36   Mainly Clear
11:00 Legend Double Dagger 29.7 20.2 56 23 23 24.1 99.65 37   LegendNANA
12:00 Legend Double Dagger 30.7 20.5 54 25 19 24.1 99.62 39   LegendNANA
13:00 Legend Double Dagger 31.3 19.6 49 22 13 24.1 99.58 39   Mostly Cloudy
14:00 Legend Double Dagger 31.5 19.4 48 27 12 24.1 99.52 39   LegendNANA
15:00 Legend Double Dagger 32.0 19.5 47 25 19 24.1 99.48 39   LegendNANA
16:00 Legend Double Dagger 32.1 18.2 43 23 17 24.1 99.45 38   Mainly Clear
17:00 Legend Double Dagger 30.3 19.3 51 23 22 24.1 99.43 37   LegendNANA
18:00 Legend Double Dagger 30.0 20.2 55 24 24 24.1 99.43 38   LegendNANA
19:00 Legend Double Dagger 28.2 20.1 61 24 19 24.1 99.43 36   Mostly Cloudy
20:00 Legend Double Dagger 27.3 20.8 67 24 15 24.1 99.46 36   LegendNANA
21:00 Legend Double Dagger 26.1 21.0 73 25 17 24.1 99.50 35   LegendNANA
22:00 Legend Double Dagger 25.1 20.9 77 27 14 24.1 99.50 33   Mainly Clear
23:00 Legend Double Dagger 24.0 20.8 82 24 10 24.1 99.50 32   LegendNANA

Notes on Data Quality.

Legend

  • E = Estimated
  • M = Missing
  • NA = Not Available
  • ‡ = Partner data that is not subject to review by the National Climate Archives
Date modified: